When you browse on this site, cookies collect data to enhance your experience and personalize the content and advertising you see.
Visit our Privacy Policy to learn more. By continuing to use the site, you agree to this use of cookies and data.
  • In Hungary
  • List of Countries
  • For 7 days
  • Water Temperature
  • Satellite Maps
  • Weather Map
  • News
  • Weather Widgets
  • user-avatar
    Login

    Hourly Weather Castres

    Today, 19 March, Tuesday

    Time Temperature Precipitation Wind Pressure Humidity
    00:00 +5°C° 0.2 mm 2 mps 751 mmHg 92%
    01:00 +5°C° 0.1 mm 2 mps 751 mmHg 93%
    02:00 +4°C° 0.1 mm 3 mps 751 mmHg 95%
    03:00 +4°C° 0.1 mm 3 mps 751 mmHg 96%
    04:00 +4°C° 0.1 mm 3 mps 751 mmHg 96%
    05:00 +4°C° 0.1 mm 3 mps 751 mmHg 96%
    06:00 +4°C° 0.1 mm 3 mps 751 mmHg 96%
    07:00 +4°C° 0.1 mm 3 mps 751 mmHg 94%
    08:00 +5°C° 0.1 mm 3 mps 751 mmHg 91%
    09:00 +5°C° 0.1 mm 3 mps 752 mmHg 88%
    10:00 +7°C° 0 mm 3 mps 751 mmHg 84%
    11:00 +8°C° 0 mm 3 mps 751 mmHg 80%
    12:00 +8°C° 0 mm 3 mps 751 mmHg 76%
    13:00 +9°C° 0.1 mm 3 mps 751 mmHg 71%
    14:00 +10°C° 0.1 mm 4 mps 751 mmHg 67%
    15:00 +11°C° 0.1 mm 4 mps 751 mmHg 62%
    16:00 +10°C° 0.1 mm 3 mps 751 mmHg 68%
    17:00 +9°C° 0.1 mm 3 mps 752 mmHg 74%
    18:00 +8°C° 0.1 mm 2 mps 752 mmHg 81%
    19:00 +7°C° 0 mm 2 mps 753 mmHg 83%
    20:00 +6°C° 0 mm 2 mps 753 mmHg 86%
    21:00 +6°C° 0 mm 1 mps 754 mmHg 89%
    22:00 +5°C° 0 mm 1 mps 754 mmHg 89%
    23:00 +5°C° 0 mm 1 mps 754 mmHg 89%

    Tomorrow, 20 March, Wednesday

    Time Temperature Precipitation Wind Pressure Humidity
    00:00 +4°C° 0 mm 1 mps 755 mmHg 89%
    01:00 +4°C° 0 mm 1 mps 755 mmHg 90%
    02:00 +3°C° 0 mm 1 mps 755 mmHg 91%
    03:00 +3°C° 0 mm 1 mps 755 mmHg 92%
    04:00 +2°C° 0 mm 1 mps 755 mmHg 92%
    05:00 +2°C° 0 mm 1 mps 755 mmHg 93%
    06:00 +2°C° 0 mm 1 mps 755 mmHg 93%
    07:00 +4°C° 0 mm 1 mps 755 mmHg 84%
    08:00 +5°C° 0 mm 2 mps 755 mmHg 75%
    09:00 +7°C° 0 mm 2 mps 755 mmHg 67%
    10:00 +9°C° 0 mm 2 mps 755 mmHg 60%
    11:00 +10°C° 0 mm 3 mps 755 mmHg 53%
    12:00 +12°C° 0 mm 3 mps 755 mmHg 47%
    13:00 +12°C° 0 mm 3 mps 754 mmHg 46%
    14:00 +12°C° 0 mm 3 mps 754 mmHg 46%
    15:00 +13°C° 0 mm 4 mps 754 mmHg 45%
    16:00 +11°C° 0 mm 3 mps 754 mmHg 53%
    17:00 +9°C° 0 mm 3 mps 754 mmHg 61%
    18:00 +8°C° 0 mm 2 mps 754 mmHg 70%
    19:00 +7°C° 0 mm 2 mps 755 mmHg 72%
    20:00 +7°C° 0 mm 1 mps 755 mmHg 75%
    21:00 +6°C° 0 mm 1 mps 756 mmHg 78%
    22:00 +5°C° 0 mm 1 mps 755 mmHg 80%
    23:00 +5°C° 0 mm 1 mps 755 mmHg 82%

    Day after tomorrow, 21 March, Thursday

    Time Temperature Precipitation Wind Pressure Humidity
    00:00 +4°C° 0 mm 1 mps 755 mmHg 85%
    01:00 +4°C° 0 mm 1 mps 755 mmHg 85%
    02:00 +4°C° 0 mm 1 mps 755 mmHg 85%
    03:00 +3°C° 0 mm 0 mps 755 mmHg 85%
    04:00 +2°C° 0 mm 0 mps 755 mmHg 85%
    05:00 +2°C° 0 mm 0 mps 755 mmHg 85%
    06:00 +2°C° 0 mm 0 mps 755 mmHg 84%
    07:00 +6°C° 0 mm 1 mps 755 mmHg 74%
    08:00 +9°C° 0 mm 1 mps 755 mmHg 64%
    09:00 +11°C° 0 mm 1 mps 755 mmHg 53%
    10:00 +13°C° 0 mm 1 mps 755 mmHg 50%
    11:00 +15°C° 0 mm 1 mps 755 mmHg 46%
    12:00 +16°C° 0 mm 1 mps 754 mmHg 42%
    13:00 +16°C° 0 mm 2 mps 754 mmHg 41%
    14:00 +17°C° 0 mm 2 mps 754 mmHg 41%
    15:00 +17°C° 0 mm 2 mps 753 mmHg 40%
    16:00 +15°C° 0 mm 2 mps 753 mmHg 49%
    17:00 +13°C° 0 mm 1 mps 753 mmHg 58%
    18:00 +11°C° 0 mm 1 mps 754 mmHg 66%
    19:00 +10°C° 0 mm 1 mps 754 mmHg 70%
    20:00 +9°C° 0 mm 1 mps 754 mmHg 73%
    21:00 +8°C° 0 mm 1 mps 755 mmHg 76%
    22:00 +8°C° 0 mm 1 mps 755 mmHg 76%
    23:00 +7°C° 0 mm 1 mps 755 mmHg 76%

    22 March, Friday

    Time Temperature Precipitation Wind Pressure Humidity
    00:00 +7°C° 0 mm 1 mps 755 mmHg 77%
    01:00 +7°C° 0 mm 1 mps 755 mmHg 77%
    02:00 +7°C° 0 mm 1 mps 755 mmHg 77%
    03:00 +6°C° 0 mm 1 mps 755 mmHg 77%
    04:00 +5°C° 0 mm 0 mps 755 mmHg 77%
    05:00 +5°C° 0 mm 0 mps 755 mmHg 78%
    06:00 +5°C° 0 mm 0 mps 755 mmHg 78%
    07:00 +8°C° 0 mm 0 mps 755 mmHg 69%
    08:00 +11°C° 0 mm 0 mps 754 mmHg 60%
    09:00 +14°C° 0 mm 0 mps 754 mmHg 51%
    10:00 +16°C° 0 mm 0 mps 754 mmHg 46%
    11:00 +19°C° 0 mm 1 mps 754 mmHg 42%
    12:00 +21°C° 0 mm 1 mps 754 mmHg 37%
    13:00 +22°C° 0 mm 1 mps 753 mmHg 37%
    14:00 +22°C° 0 mm 1 mps 753 mmHg 36%
    15:00 +22°C° 0 mm 1 mps 753 mmHg 35%
    16:00 +20°C° 0 mm 1 mps 753 mmHg 43%
    17:00 +16°C° 0 mm 1 mps 753 mmHg 52%
    18:00 +14°C° 0 mm 1 mps 753 mmHg 60%
    19:00 +13°C° 0 mm 1 mps 753 mmHg 61%
    20:00 +12°C° 0 mm 1 mps 754 mmHg 62%
    21:00 +11°C° 0 mm 1 mps 754 mmHg 63%
    22:00 +11°C° 0 mm 1 mps 754 mmHg 62%
    23:00 +11°C° 0 mm 1 mps 754 mmHg 62%

    23 March, Saturday

    Time Temperature Precipitation Wind Pressure Humidity
    00:00 +10°C° 0 mm 1 mps 754 mmHg 61%
    01:00 +10°C° 0 mm 1 mps 754 mmHg 60%
    02:00 +10°C° 0 mm 1 mps 754 mmHg 59%
    03:00 +8°C° 0 mm 2 mps 754 mmHg 58%
    04:00 +8°C° 0 mm 2 mps 754 mmHg 57%
    05:00 +8°C° 0 mm 2 mps 754 mmHg 56%
    06:00 +8°C° 0 mm 2 mps 754 mmHg 56%
    07:00 +11°C° 0 mm 1 mps 753 mmHg 49%
    08:00 +14°C° 0 mm 1 mps 753 mmHg 43%
    09:00 +18°C° 0 mm 1 mps 753 mmHg 37%
    10:00 +20°C° 0 mm 1 mps 753 mmHg 33%
    11:00 +21°C° 0 mm 1 mps 753 mmHg 30%
    12:00 +23°C° 0 mm 2 mps 752 mmHg 26%
    13:00 +23°C° 0 mm 2 mps 752 mmHg 26%
    14:00 +23°C° 0 mm 2 mps 751 mmHg 26%
    15:00 +23°C° 0 mm 2 mps 751 mmHg 26%
    16:00 +19°C° 0 mm 2 mps 751 mmHg 32%
    17:00 +17°C° 0 mm 2 mps 751 mmHg 38%
    18:00 +15°C° 0 mm 2 mps 751 mmHg 44%
    19:00 +14°C° 0 mm 2 mps 751 mmHg 44%
    20:00 +13°C° 0 mm 2 mps 752 mmHg 44%
    21:00 +12°C° 0 mm 2 mps 752 mmHg 44%
    22:00 +10°C° 0 mm 2 mps 752 mmHg 45%
    23:00 +10°C° 0 mm 2 mps 752 mmHg 45%

    24 March, Sunday

    Time Temperature Precipitation Wind Pressure Humidity
    00:00 +10°C° 0 mm 2 mps 752 mmHg 45%
    01:00 +9°C° 0 mm 2 mps 752 mmHg 46%
    02:00 +9°C° 0 mm 2 mps 752 mmHg 48%
    03:00 +9°C° 0 mm 2 mps 752 mmHg 49%
    04:00 +9°C° 0 mm 2 mps 752 mmHg 51%
    05:00 +9°C° 0 mm 2 mps 752 mmHg 53%
    06:00 +8°C° 0 mm 2 mps 752 mmHg 55%
    07:00 +12°C° 0 mm 2 mps 752 mmHg 52%
    08:00 +15°C° 0 mm 2 mps 752 mmHg 49%
    09:00 +17°C° 0 mm 2 mps 752 mmHg 45%
    10:00 +20°C° 0 mm 1 mps 751 mmHg 42%
    11:00 +22°C° 0 mm 1 mps 751 mmHg 39%
    12:00 +23°C° 0 mm 1 mps 751 mmHg 36%
    13:00 +23°C° 0 mm 1 mps 751 mmHg 35%
    14:00 +24°C° 0 mm 1 mps 750 mmHg 34%
    15:00 +24°C° 0 mm 1 mps 750 mmHg 33%
    16:00 +21°C° 0 mm 1 mps 750 mmHg 41%
    17:00 +19°C° 0 mm 1 mps 750 mmHg 49%
    18:00 +16°C° 0 mm 1 mps 750 mmHg 57%
    19:00 +15°C° 0 mm 1 mps 750 mmHg 60%
    20:00 +13°C° 0 mm 0 mps 751 mmHg 64%
    21:00 +11°C° 0 mm 0 mps 751 mmHg 68%
    22:00 +11°C° 0 mm 0 mps 751 mmHg 71%
    23:00 +11°C° 0 mm 0 mps 751 mmHg 74%
    Show more